Location: Pinawa
(50.1500°N, 95.8830°W)
Time: 09:46:11
(UTC-05:00)

Daily predictions for brighter satellites

Satellite Brightness Start Highest point End
(mag) Time Altitude Azimuth Time Altitude Azimuth Time Altitude Azimuth
Meteor 1-27 Rocket 3.8 21:48:15 10° N 21:53:52 67° ENE 21:59:22 10° SSE
Cosmos 1340 Rocket 3.6 21:51:44 10° SSW 21:55:40 56° WNW 21:59:41 10° N
YAOGAN 6 2.9 21:52:55 10° SSE 21:56:19 50° ENE 21:59:45 10° N
Cosmos 1408 3.7 21:53:54 10° SSE 21:57:01 26° E 22:00:07 10° NNE
Cosmos 1782 3.0 21:53:54 10° NNW 21:57:56 78° W 22:01:58 10° S
Nadezhda 3 Rocket 4.1 21:53:58 10° N 22:00:19 70° ENE 22:06:40 10° SSE
Cosmos 2263 Rocket 3.3 21:55:32 10° SW 22:01:03 51° NW 22:06:34 10° NNE
MetOp-A 4.2 21:57:01 10° SSE 22:02:21 79° ENE 22:07:44 10° NNW
Cosmos 1939 Rocket 3.6 21:59:17 10° S 22:03:04 51° W 22:06:55 10° NNW
NOSS 2-2 (C) 3.7 21:59:52 10° SSW 22:03:59 55° SE 22:08:55 10° NE
Envisat 3.4 21:59:51 10° S 22:04:54 66° WSW 22:09:59 10° NNW
Cosmos 1624 Rocket 4.0 21:59:56 10° SSW 22:05:13 81° ESE 22:10:34 10° NNE
Cosmos 1238 Rocket 2.5 22:04:05 10° N 22:07:03 51° ENE 22:10:19 10° SSE
Okean 2 Rocket 4.1 22:03:36 10° SSE 22:07:21 28° E 22:11:07 10° NNE
Cosmos 1242 Rocket 3.6 22:04:04 10° N 22:07:22 32° ENE 22:10:41 10° SE
ERBS 4.4 22:05:34 10° W 22:08:09 20° SW 22:10:43 10° S
PSLV R/B 3.1 22:07:55 10° SSE 22:10:52 85° WSW 22:13:51 10° NNW
H-2A R/B 3.1 22:06:03 10° SE 22:10:53 35° ENE 22:15:39 10° N
Cosmos 1606 2.8 22:07:40 10° N 22:11:38 89° W 22:15:34 10° S
Cosmos 1674 Rocket 4.2 22:07:58 10° NNW 22:12:22 57° W 22:16:43 10° S
Sich 1 Rocket 3.7 22:07:49 10° S 22:12:23 74° E 22:16:59 10° NNE
Cosmos 1461 3.7 22:07:51 10° SW 22:12:28 64° NW 22:16:56 10° NE
SPOT 5 3.4 22:09:51 10° S 22:15:07 73° WSW 22:20:31 10° NNW
Cosmos 407 Rocket 4.0 22:13:55 10° NNW 22:19:06 59° WSW 22:24:18 10° S
NOAA 11 4.3 22:14:37 10° SSE 22:20:04 68° ENE 22:25:33 10° N
NOSS 2-2 (E) 3.7 22:18:36 10° SW 22:22:55 83° SE 22:28:14 10° NE
Cosmos 2341 Rocket 4.1 22:17:03 10° S 22:23:15 62° E 22:29:26 10° NNE
Cosmos 1892 4.3 22:19:52 10° SW 22:23:28 37° WNW 22:27:06 10° N
Terra 2.7 22:21:17 11° SE 22:25:23 35° ENE 22:29:42 10° N
SPOT 1/Viking Rocket 3.6 22:20:38 10° SSE 22:25:49 85° ENE 22:31:06 10° NNW
Cosmos 1452 Rocket 3.6 22:23:59 10° S 22:29:06 55° ESE 22:34:17 10° NNE
Cosmos 1782 Rocket 3.8 22:25:14 10° S 22:29:35 54° E 22:33:57 10° NNE
Timation 2 Rocket 4.0 22:23:36 10° NNW 22:29:40 73° NE 22:35:01 13° SE
Cosmos 614 Rocket 4.3 22:25:07 10° NNW 22:30:08 52° ENE 22:34:27 14° SE
Cosmos 1140 Rocket 3.5 22:28:12 10° NNW 22:33:23 79° ENE 22:37:56 13° SSE
Coronas F rocket 4.3 22:33:34 10° WSW 22:35:27 18° WNW 22:37:23 10° NNW
DNEPR-1 R/B 4.0 22:31:14 10° NW 22:37:08 86° NE 22:41:08 15° SE
Okean 3 3.6 22:34:15 10° NNW 22:38:34 75° W 22:42:49 10° S
Cosmos 1975 Rocket 3.1 22:36:27 10° N 22:40:48 84° W 22:44:54 11° S
OPS 6432 4.2 22:37:41 10° SW 22:40:55 83° NW 22:44:04 10° NE
BREEZE-M DEB (TANK) 1.2 22:40:05 10° WSW 22:42:05 61° SSE 22:45:16 10° E
Cosmos 962 Rocket 4.5 22:41:36 10° S 22:47:45 89° ESE 22:54:02 10° N
SL-8 Rocket 4.2 22:41:50 10° S 22:47:57 58° E 22:54:04 10° NNE
CZ-4B R/B 3.4 22:42:54 10° NNE 22:47:58 75° ESE 22:52:50 10° S
CARTOSAT-1 3.9 22:44:45 16° SE 22:48:00 53° ENE 22:52:13 10° N
USA 234 3.8 22:44:24 10° ENE 22:50:14 34° SE 22:56:03 10° SSW
SL-8 R/B 3.8 22:48:23 10° WSW 22:53:05 53° SSE 22:57:46 10° E
Cosmos 1536 Rocket 4.1 22:49:09 10° N 22:53:29 47° ENE 22:56:28 19° SE
Cosmos 2154 Rocket 4.3 22:48:17 10° SSW 22:54:28 68° WNW 23:00:41 10° N
Cosmos 1908 Rocket 4.3 22:50:34 10° SSW 22:54:53 54° WNW 22:59:16 10° N
Cosmos 1850 Rocket 4.1 22:52:38 10° NNW 22:57:59 87° WSW 23:02:05 18° SSE
USA 245 4.3 22:56:41 10° SSW 22:59:36 37° W 23:03:17 10° NNW
Meteor 1-14 Rocket 4.4 22:55:28 13° S 23:00:32 57° E 23:06:01 10° NNE
SL-08 RB Rocket 4.1 22:57:06 13° S 23:01:12 63° WSW 23:05:50 10° NNW
Cosmos 1184 Rocket 3.0 22:58:09 10° SSW 23:01:29 72° WNW 23:04:51 10° N
ATLAS 5 CENTAUR R/B 4.4 23:00:08 10° WNW 23:04:08 18° WSW 23:08:18 10° SSW
CZ-4 R/B 3.7 23:00:01 10° NNE 23:04:45 81° ESE 23:09:25 10° SSW
ARGOS 3.7 23:01:22 10° S 23:06:32 53° W 23:11:48 10° NNW
Intercosmos 25 3.0 23:06:57 12° SSW 23:10:19 77° W 23:13:28 10° N
Cosmos 2151 Rocket 3.8 23:09:29 19° SSE 23:12:31 56° E 23:16:59 10° NNE
NOSS 5 (C) 4.0 23:09:29 10° SW 23:12:41 72° SE 23:15:49 10° NE
COSMOS 2487 4.2 23:13:10 10° NW 23:16:17 27° WSW 23:18:52 13° SSW
Cosmos 1741 Rocket 4.2 23:11:18 10° NNW 23:16:31 65° WSW 23:20:10 19° S
Cosmos 1825 3.6 23:14:27 10° SW 23:18:00 37° WNW 23:21:36 10° N
Cosmos 2278 Rocket 2.2 23:12:53 10° SSW 23:18:34 87° ESE 23:24:18 10° NNE
Cosmos 1833 Rocket 2.7 23:13:17 10° NNW 23:18:56 80° ENE 23:22:38 22° SE
Cosmos 864 Rocket 4.5 23:15:07 16° S 23:20:03 68° E 23:26:11 10° NNE
Cosmos 2084 3.1 23:16:42 10° SSW 23:20:29 64° SE 23:24:18 10° NE
Cosmos 1844 4.2 23:16:00 10° SW 23:21:45 66° WNW 23:27:33 10° NNE
Cosmos 1812 2.8 23:22:15 10° N 23:26:07 63° ENE 23:27:53 30° SSE
Cosmos 2366 rocket 4.0 23:21:19 15° S 23:26:38 79° E 23:33:00 10° NNE
Cosmos 1844 Rocket 3.8 23:24:12 10° SW 23:29:37 46° NW 23:35:03 10° NNE
CZ-4C R/B 4.2 23:27:38 18° SSW 23:30:12 43° W 23:34:06 10° NNW
ALOS 2 4.4 23:28:27 13° E 23:30:54 20° ENE 23:34:09 10° NNE
Gbstr 26 Del rocket 3.1 23:27:34 10° WNW 23:32:42 88° NNE 23:35:48 18° ESE
APEX 3.6 23:30:42 19° SSW 23:33:35 67° ESE 23:38:50 10° NE
Cosmos 2082 Rocket 2.4 23:28:04 10° NNW 23:33:46 69° WSW 23:37:16 24° SSE
USA 229 DEB 3.8 23:27:54 10° NW 23:34:59 75° SW 23:39:43 23° SSE
USA 229 3.8 23:28:00 10° NW 23:35:05 76° SW 23:39:49 23° SSE
Okean 1-7 Rocket 3.9 23:32:54 10° N 23:37:22 54° ENE 23:39:26 29° SE
CZ-4B R/B 3.8 23:38:39 10° E 23:39:45 12° ENE 23:40:59 10° NE
Iridium 4 Rocket 4.4 23:37:59 10° N 23:43:29 44° E 23:46:34 25° SE
Cosmos 1025 Rocket 4.1 23:39:34 10° N 23:43:35 33° ENE 23:45:25 24° ESE
Okean 1 Rocket 3.6 23:42:15 30° SE 23:43:59 45° E 23:48:15 10° NNE
Cosmos 1300 Rocket 3.8 23:45:04 31° SSE 23:46:54 54° E 23:51:15 10° NNE
Cosmos 1536 4.4 23:47:25 20° ESE 23:48:05 21° E 23:51:06 10° NE
Cosmos 2297 3.7 23:44:49 12° SSW 23:50:07 82° ESE 23:55:54 10° NNE
Cosmos 2218 Rocket 4.4 23:43:59 11° SSW 23:50:09 66° WNW 23:56:33 10° N
H-2A R/B 3.0 23:46:20 17° SSW 23:50:12 43° W 23:55:17 10° NNW
Cosmos 1400 Rocket 4.2 23:51:04 23° ESE 23:51:49 24° E 23:55:11 10° NE
AVUM R/B 3.4 23:48:23 10° NW 23:51:55 76° WSW 23:52:51 45° SSE
